Grosse Ile, MI

4:33 PM EST on December 14, 2017 (GMT -0500)
Grosse Ile Municipal

Weather History for KONZ - June, 2013

Change the Weather History Date:

Saturday, June 22, 2013

  Actual Average (KDTW) Record (KDTW)
Temperature  
Mean Temperature 78 °F -  
Max Temperature 87 °F 79 °F 98 °F (1988)
Min Temperature 69 °F 58 °F 44 °F (1992)
Cooling Degree Days 13    
Growing Degree Days 28 (Base 50)    
Moisture  
Dew Point 68 °F    
Average Humidity 77    
Maximum Humidity 88    
Minimum Humidity 58    
Precipitation  
Precipitation 1.01 in - - ()
Sea Level Pressure  
Sea Level Pressure 30.05 in    
Wind  
Wind Speed 6 mph (SW)    
Max Wind Speed 17 mph    
Max Gust Speed 46 mph    
Visibility 10 miles    
Events Rain    
Averages and records for this station are not official NWS values.
T = Trace of Precipitation, MM = Missing Value Source: NWS Daily Summary

Daily Weather History Graph

Daily Weather History Graph

Search for Another Location

Airport or City:

Trip Planner

Search our weather history database for the weather conditions in past years. The results will help you decide how hot, cold, wet, or windy it might be!

Date:

Astronomy

Jun. 22, 2013 Rise Set
Actual Time 5:57 AM EDT 9:12 PM EDT
Civil Twilight 5:22 AM EDT 9:46 PM EDT
Nautical Twilight 4:37 AM EDT 10:31 PM EDT
Astronomical Twilight 3:43 AM EDT 11:25 PM EDT
Moon 8:24 PM EDT (6/22) 5:09 AM EDT (6/22)
Length of Visible Light 16h 24m
Length of Day
15h 15m
Waxing Gibbous, 99% of the Moon is Illuminated
Jun 22
Waxing Gibbous
Jun 23
Full
Jun 30
Last Quarter
Jul 8
New
Jul 15
First Quarter

Hourly Weather History & Observations

Time (EDT) Temp. Heat Index Dew Point Humidity Pressure Visibility Wind Dir Wind Speed Gust Speed Precip Events Conditions
12:14 AM 71.6 °F - 66.2 °F 83% 30.11 in 10.0 mi Calm Calm - N/A   Clear
12:34 AM 71.6 °F - 66.2 °F 83% 30.11 in 10.0 mi South 3.5 mph - N/A   Clear
12:54 AM 69.8 °F - 66.2 °F 88% 30.10 in 10.0 mi South 4.6 mph - N/A   Clear
1:14 AM 69.8 °F - 66.2 °F 88% 30.09 in 10.0 mi South 5.8 mph - N/A   Clear
1:34 AM 71.6 °F - 66.2 °F 83% 30.08 in 10.0 mi South 6.9 mph - N/A   Clear
1:54 AM 69.8 °F - 64.4 °F 83% 30.08 in 10.0 mi South 6.9 mph - N/A   Clear
2:14 AM 71.6 °F - 66.2 °F 83% 30.09 in 10.0 mi South 8.1 mph - N/A   Scattered Clouds
2:34 AM 71.6 °F - 66.2 °F 83% 30.08 in 10.0 mi South 6.9 mph - N/A   Scattered Clouds
2:54 AM 71.6 °F - 66.2 °F 83% 30.08 in 10.0 mi South 8.1 mph - N/A   Scattered Clouds
3:15 AM 71.6 °F - 66.2 °F 83% 30.07 in 10.0 mi South 6.9 mph - N/A   Scattered Clouds
3:34 AM 71.6 °F - 64.4 °F 78% 30.06 in 10.0 mi SSW 8.1 mph - N/A   Scattered Clouds
3:54 AM 71.6 °F - 64.4 °F 78% 30.05 in 10.0 mi South 8.1 mph - N/A   Scattered Clouds
4:14 AM 71.6 °F - 66.2 °F 83% 30.04 in 10.0 mi South 8.1 mph - N/A   Scattered Clouds
4:34 AM 71.6 °F - 64.4 °F 78% 30.05 in 10.0 mi South 5.8 mph - N/A   Mostly Cloudy
4:54 AM 71.6 °F - 64.4 °F 78% 30.05 in 10.0 mi SSW 6.9 mph - N/A   Scattered Clouds
5:14 AM 71.6 °F - 64.4 °F 78% 30.05 in 10.0 mi South 4.6 mph - N/A   Clear
5:34 AM 71.6 °F - 66.2 °F 83% 30.04 in 10.0 mi South 8.1 mph - N/A   Clear
5:54 AM 71.6 °F - 66.2 °F 83% 30.04 in 7.0 mi South 9.2 mph - N/A   Clear
6:14 AM 71.6 °F - 66.2 °F 83% 30.05 in 10.0 mi SSW 5.8 mph - N/A   Scattered Clouds
6:34 AM 71.6 °F - 64.4 °F 78% 30.05 in 10.0 mi SSW 3.5 mph - N/A   Mostly Cloudy
6:54 AM 73.4 °F - 66.2 °F 78% 30.05 in 10.0 mi SSW 3.5 mph - N/A   Mostly Cloudy
7:14 AM 73.4 °F - 66.2 °F 78% 30.06 in 10.0 mi SSW 5.8 mph - N/A   Mostly Cloudy
7:34 AM 73.4 °F - 64.4 °F 73% 30.06 in 10.0 mi SW 6.9 mph - N/A   Scattered Clouds
7:54 AM 75.2 °F - 64.4 °F 69% 30.06 in 10.0 mi SSW 6.9 mph - N/A   Clear
8:14 AM 75.2 °F - 64.4 °F 69% 30.07 in 10.0 mi SSW 5.8 mph - N/A   Clear
8:34 AM 75.2 °F - 64.4 °F 69% 30.08 in 10.0 mi SW 4.6 mph - N/A   Scattered Clouds
8:54 AM 75.2 °F - 66.2 °F 73% 30.08 in 10.0 mi SW 4.6 mph - N/A   Scattered Clouds
9:14 AM 78.8 °F - 66.2 °F 65% 30.08 in 10.0 mi SSW 8.1 mph - N/A   Clear
9:34 AM 78.8 °F - 66.2 °F 65% 30.08 in 10.0 mi SSW 6.9 mph - N/A   Clear
9:54 AM 80.6 °F 83.2 °F 68.0 °F 65% 30.09 in 10.0 mi WSW 5.8 mph - N/A   Clear
10:14 AM 80.6 °F 83.9 °F 69.8 °F 70% 30.09 in 10.0 mi WSW 5.8 mph - N/A   Clear
10:35 AM 80.6 °F 83.9 °F 69.8 °F 70% 30.09 in 10.0 mi WSW 8.1 mph - N/A   Clear
10:54 AM 82.4 °F 86.3 °F 69.8 °F 66% 30.08 in 10.0 mi SW 6.9 mph - N/A   Clear
11:14 AM 84.2 °F 88.4 °F 69.8 °F 62% 30.07 in 10.0 mi WSW 8.1 mph - N/A   Clear
11:34 AM 84.2 °F 88.4 °F 69.8 °F 62% 30.07 in 7.0 mi West 9.2 mph - N/A   Clear
11:54 AM 86.0 °F 91.8 °F 71.6 °F 62% 30.07 in 10.0 mi West 6.9 mph - N/A   Clear
12:15 PM 86.0 °F 90.4 °F 69.8 °F 58% 30.08 in 7.0 mi WSW 6.9 mph - N/A   Clear
12:34 PM 84.2 °F 88.4 °F 69.8 °F 62% 30.08 in 10.0 mi WSW 6.9 mph - N/A   Clear
12:54 PM 87.8 °F 93.8 °F 71.6 °F 58% 30.08 in 10.0 mi WSW 6.9 mph - N/A   Clear
1:14 PM 86.0 °F 91.8 °F 71.6 °F 62% 30.08 in 10.0 mi West 6.9 mph - N/A   Clear
1:34 PM 86.0 °F 91.8 °F 71.6 °F 62% 30.08 in 10.0 mi SW 5.8 mph - N/A   Scattered Clouds
1:54 PM 86.0 °F 91.8 °F 71.6 °F 62% 30.06 in 10.0 mi SW 5.8 mph - N/A   Scattered Clouds
2:14 PM 87.8 °F 93.8 °F 71.6 °F 58% 30.06 in 10.0 mi SSW 9.2 mph - N/A   Scattered Clouds
2:34 PM 84.2 °F 89.6 °F 71.6 °F 66% 30.05 in 10.0 mi South 8.1 mph - N/A   Scattered Clouds
2:54 PM 82.4 °F 87.2 °F 71.6 °F 70% 30.05 in 7.0 mi South 9.2 mph - N/A   Clear
3:14 PM 82.4 °F 87.2 °F 71.6 °F 70% 30.04 in 7.0 mi South 9.2 mph - N/A   Scattered Clouds
3:34 PM 84.2 °F 89.6 °F 71.6 °F 66% 30.03 in 10.0 mi South 10.4 mph - N/A   Clear
3:54 PM 84.2 °F 89.6 °F 71.6 °F 66% 30.01 in 7.0 mi South 8.1 mph - N/A   Scattered Clouds
4:14 PM 80.6 °F 82.7 °F 66.2 °F 61% 30.02 in 3.0 mi West 17.3 mph 46.0 mph 0.13 in Rain Heavy Rain
4:34 PM 73.4 °F - 68.0 °F 83% 30.02 in 10.0 mi West 15.0 mph 19.6 mph 0.44 in Rain Heavy Rain
4:54 PM 73.4 °F - 68.0 °F 83% 30.07 in 10.0 mi West 12.7 mph - 0.67 in Rain Heavy Rain
5:14 PM 71.6 °F - 68.0 °F 88% 30.02 in 10.0 mi WNW 11.5 mph - 0.23 in Rain Heavy Rain
5:34 PM 71.6 °F - 68.0 °F 88% 30.02 in 10.0 mi West 6.9 mph - 0.31 in Rain Light Rain
5:55 PM 71.6 °F - 68.0 °F 88% 30.02 in 10.0 mi WSW 10.4 mph - 0.32 in Rain Rain
6:14 PM 71.6 °F - 66.2 °F 83% 30.01 in 10.0 mi WSW 9.2 mph 18.4 mph N/A Rain Light Rain
6:34 PM 71.6 °F - 68.0 °F 88% 30.00 in 10.0 mi West 6.9 mph - N/A   Clear
6:54 PM 73.4 °F - 68.0 °F 83% 30.00 in 4.0 mi Calm Calm - N/A   Haze
7:14 PM 73.4 °F - 68.0 °F 83% 30.00 in 10.0 mi Calm Calm - N/A Rain Light Rain
7:34 PM 73.4 °F - 68.0 °F 83% 30.00 in 10.0 mi SSW 3.5 mph - N/A Rain Rain
7:54 PM 73.4 °F - 66.2 °F 78% 30.00 in 10.0 mi SW 8.1 mph - 0.01 in Rain Light Rain
8:14 PM 73.4 °F - 68.0 °F 83% 30.00 in 10.0 mi West 4.6 mph - N/A Rain Light Rain
8:34 PM 73.4 °F - 69.8 °F 88% 30.00 in 10.0 mi Calm Calm - N/A   Clear
8:54 PM 73.4 °F - 68.0 °F 83% 30.02 in 10.0 mi South 6.9 mph - N/A   Clear
9:14 PM 73.4 °F - 69.8 °F 88% 30.03 in 10.0 mi South 8.1 mph - 0.01 in   Clear
9:34 PM 73.4 °F - 69.8 °F 88% 30.03 in 10.0 mi South 6.9 mph - 0.01 in   Scattered Clouds
9:54 PM 73.4 °F - 69.8 °F 88% 30.03 in 10.0 mi SW 8.1 mph - 0.01 in   Mostly Cloudy
10:14 PM 73.4 °F - 68.0 °F 83% 30.05 in 10.0 mi West 4.6 mph - N/A   Scattered Clouds
10:34 PM 73.4 °F - 69.8 °F 88% 30.05 in 10.0 mi SSW 4.6 mph - N/A Rain Light Rain
10:54 PM 73.4 °F - 69.8 °F 88% 30.05 in 10.0 mi SW 3.5 mph - N/A Rain Light Rain
11:14 PM 73.4 °F - 69.8 °F 88% 30.04 in 10.0 mi SW 3.5 mph - N/A   Clear
11:34 PM 73.4 °F - 68.0 °F 83% 30.03 in 10.0 mi SW 5.8 mph - N/A   Clear
11:54 PM 73.4 °F - 68.0 °F 83% 30.03 in 10.0 mi WSW 6.9 mph - N/A   Clear